| time (UTC) | temp F | wind direction | speed knots | gust knots | rain 1hr in | rain 24hr in | rain mn in | humidity % | barometer mb |
| 20260906080056 | 82 | 104 | 7.8 | 10.4 | 0.00 | 0.00 | 0.00 | 64 | 1022.9 |
| 20260906074554 | 82 | 101 | 8.7 | 10.4 | 0.00 | 0.00 | 0.00 | 67 | 1022.8 |
| 20260906073049 | 82 | 160 | 1.7 | 4.3 | 0.00 | 0.00 | 0.00 | 69 | 1022.7 |
| 20260906071546 | 82 | 140 | 1.7 | 2.6 | 0.00 | 0.00 | 0.00 | 68 | 1022.5 |
| 20260906070044 | 82 | 111 | 0.0 | 0.9 | 0.00 | 0.00 | 0.00 | 68 | 1022.3 |
| 20260906064539 | 79 | 260 | 0.0 | 1.7 | 0.00 | 0.00 | 0.00 | 75 | 1022.2 |
| 20260906063006 | 77 | 272 | 0.9 | 2.6 | 0.00 | 0.00 | 0.00 | 78 | 1022.0 |
| 20260906061502 | 75 | 257 | 1.7 | 5.2 | 0.00 | 0.00 | 0.00 | 79 | 1022.0 |
| 20260906060056 | 74 | 267 | 2.6 | 4.3 | 0.00 | 0.00 | 0.00 | 79 | 1021.9 |
| 20260906054604 | 74 | 247 | 3.5 | 5.2 | 0.00 | 0.00 | 0.00 | 79 | 1021.7 |
| 20260906053053 | 76 | 252 | 1.7 | 4.3 | 0.00 | 0.00 | 0.00 | 76 | 1021.6 |
| 20260906051546 | 82 | 108 | 5.2 | 8.7 | 0.00 | 0.00 | 0.00 | 68 | 1021.5 |
| 20260906050015 | 81 | 113 | 7.0 | 8.7 | 0.00 | 0.00 | 0.00 | 70 | 1021.2 |
| 20260906044514 | 81 | 105 | 7.0 | 8.7 | 0.00 | 0.00 | 0.00 | 69 | 1021.0 |
| 20260906043011 | 81 | 120 | 6.1 | 8.7 | 0.00 | 0.00 | 0.00 | 73 | 1020.9 |
| 20260906041511 | 81 | 118 | 7.0 | 9.6 | 0.00 | 0.00 | 0.00 | 71 | 1020.8 |
| 20260906040008 | 81 | 109 | 7.0 | 9.6 | 0.00 | 0.00 | 0.00 | 76 | 1020.6 |
| 20260906034509 | 81 | 85 | 7.8 | 9.6 | 0.00 | 0.00 | 0.00 | 78 | 1020.5 |
| 20260906033037 | 81 | 98 | 7.8 | 9.6 | 0.00 | 0.00 | 0.00 | 78 | 1020.5 |
| 20260906031535 | 81 | 98 | 7.8 | 9.6 | 0.00 | 0.00 | 0.00 | 79 | 1020.4 |
| 20260906030031 | 81 | 80 | 8.7 | 10.4 | 0.00 | 0.00 | 0.00 | 81 | 1020.4 |
| 20260906024530 | 81 | 75 | 8.7 | 12.2 | 0.00 | 0.00 | 0.00 | 80 | 1020.5 |
| 20260906023030 | 81 | 75 | 8.7 | 12.2 | 0.00 | 0.00 | 0.00 | 80 | 1020.4 |
| 20260906021528 | 82 | 63 | 9.6 | 12.2 | 0.00 | 0.00 | 0.00 | 81 | 1020.3 |
| 20260906020029 | 82 | 58 | 9.6 | 11.3 | 0.00 | 0.00 | 0.00 | 80 | 1020.1 |
| 20260906014531 | 81 | 53 | 7.8 | 10.4 | 0.00 | 0.00 | 0.00 | 81 | 1019.9 |
| 20260906013029 | 78 | 41 | 3.5 | 7.8 | 0.00 | 0.00 | 0.00 | 91 | 1020.0 |
| 20260906011522 | 77 | 283 | 0.9 | 2.6 | 0.00 | 0.00 | 0.00 | 87 | 1019.9 |
| 20260906010051 | 77 | 271 | 1.7 | 2.6 | 0.00 | 0.00 | 0.00 | 86 | 1019.6 |
| 20260906004551 | 79 | 244 | 0.0 | 0.0 | 0.00 | 0.00 | 0.00 | 84 | 1019.6 |
| 20260906003047 | 80 | 194 | 0.0 | 0.0 | 0.00 | 0.00 | 0.00 | 83 | 1019.6 |
| 20260906001546 | 80 | 215 | 0.0 | 0.9 | 0.00 | 0.00 | 0.00 | 81 | 1019.6 |
| 20260906000044 | 82 | 105 | 2.6 | 3.5 | 0.00 | 0.00 | 0.00 | 79 | 1019.8 |
| 20260905234550 | 82 | 123 | 2.6 | 3.5 | 0.00 | 0.00 | 0.00 | 78 | 1019.8 |
| 20260905233017 | 82 | 119 | 3.5 | 4.3 | 0.00 | 0.00 | 0.00 | 77 | 1019.6 |
| 20260905231517 | 82 | 108 | 3.5 | 4.3 | 0.00 | 0.00 | 0.00 | 78 | 1019.8 |
| 20260905230100 | 82 | 104 | 4.3 | 5.2 | 0.00 | 0.00 | 0.00 | 79 | 1019.6 |
| 20260905224542 | 82 | 98 | 3.5 | 5.2 | 0.00 | 0.00 | 0.00 | 79 | 1019.7 |
| 20260905223011 | 82 | 102 | 3.5 | 5.2 | 0.00 | 0.00 | 0.00 | 78 | 1019.7 |
| 20260905221513 | 82 | 113 | 4.3 | 6.1 | 0.00 | 0.00 | 0.00 | 78 | 1019.5 |
| 20260905220006 | 82 | 111 | 4.3 | 6.1 | 0.00 | 0.00 | 0.00 | 78 | 1019.5 |
| 20260905214505 | 83 | 113 | 5.2 | 7.0 | 0.00 | 0.00 | 0.00 | 78 | 1019.4 |
| 20260905213005 | 82 | 117 | 5.2 | 7.0 | 0.00 | 0.00 | 0.00 | 77 | 1019.3 |
| 20260905211508 | 82 | 115 | 5.2 | 7.8 | 0.00 | 0.00 | 0.00 | 77 | 1019.3 |
| 20260905204601 | 82 | 117 | 6.1 | 7.0 | 0.00 | 0.00 | 0.00 | 78 | 1019.2 |
| 20260905203103 | 83 | 124 | 6.1 | 7.8 | 0.00 | 0.00 | 0.00 | 78 | 1019.3 |
| 20260905201557 | 83 | 118 | 6.1 | 7.8 | 0.00 | 0.00 | 0.00 | 78 | 1019.3 |
| 20260905200101 | 83 | 127 | 7.0 | 7.8 | 0.00 | 0.00 | 0.00 | 74 | 1019.0 |
| 20260905194550 | 83 | 124 | 7.0 | 8.7 | 0.00 | 0.00 | 0.00 | 72 | 1019.0 |
| 20260905193105 | 83 | 131 | 6.1 | 8.7 | 0.00 | 0.00 | 0.00 | 73 | 1018.9 |
| 20260905191547 | 83 | 133 | 6.1 | 8.7 | 0.00 | 0.00 | 0.00 | 72 | 1018.8 |
| 20260905190043 | 83 | 143 | 6.1 | 8.7 | 0.00 | 0.00 | 0.00 | 71 | 1018.6 |
| 20260905184543 | 83 | 143 | 7.0 | 9.6 | 0.00 | 0.00 | 0.00 | 71 | 1018.4 |
| 20260905183046 | 83 | 145 | 7.0 | 10.4 | 0.00 | 0.00 | 0.00 | 68 | 1018.1 |
| 20260905181541 | 83 | 161 | 7.8 | 10.4 | 0.00 | 0.00 | 0.00 | 68 | 1018.1 |
| 20260905180040 | 83 | 182 | 7.8 | 10.4 | 0.00 | 0.00 | 0.00 | 66 | 1017.8 |
| 20260905174538 | 83 | 162 | 8.7 | 11.3 | 0.00 | 0.00 | 0.00 | 66 | 1017.7 |
| 20260905173042 | 83 | 204 | 8.7 | 11.3 | 0.00 | 0.00 | 0.00 | 67 | 1017.6 |
| 20260905171537 | 84 | 167 | 7.8 | 12.2 | 0.00 | 0.00 | 0.00 | 67 | 1017.6 |
| 20260905170038 | 85 | 150 | 7.8 | 11.3 | 0.00 | 0.00 | 0.00 | 69 | 1017.5 |
| 20260905164513 | 85 | 147 | 8.7 | 10.4 | 0.00 | 0.00 | 0.00 | 67 | 1017.6 |
| 20260905163005 | 85 | 131 | 7.8 | 10.4 | 0.00 | 0.00 | 0.00 | 67 | 1017.4 |
| 20260905161534 | 85 | 146 | 7.0 | 10.4 | 0.00 | 0.00 | 0.00 | 66 | 1017.2 |
| 20260905160034 | 85 | 139 | 7.8 | 11.3 | 0.00 | 0.00 | 0.00 | 65 | 1017.1 |
| 20260905154535 | 85 | 145 | 8.7 | 11.3 | 0.00 | 0.00 | 0.00 | 66 | 1017.1 |
| 20260905153030 | 85 | 157 | 7.8 | 11.3 | 0.00 | 0.00 | 0.00 | 61 | 1017.0 |
| 20260905151531 | 85 | 136 | 7.0 | 10.4 | 0.00 | 0.00 | 0.00 | 68 | 1017.0 |
| 20260905150035 | 86 | 143 | 7.0 | 11.3 | 0.00 | 0.00 | 0.00 | 61 | 1016.9 |
| 20260905144526 | 85 | 168 | 7.8 | 10.4 | 0.00 | 0.00 | 0.00 | 69 | 1016.9 |
| 20260905143025 | 85 | 101 | 6.1 | 8.7 | 0.00 | 0.00 | 0.00 | 69 | 1016.9 |
| 20260905141524 | 86 | 94 | 7.0 | 9.6 | 0.00 | 0.00 | 0.00 | 65 | 1016.7 |
| 20260905140022 | 86 | 81 | 7.0 | 10.4 | 0.00 | 0.00 | 0.00 | 58 | 1017.0 |
| 20260905134549 | 86 | 97 | 8.7 | 10.4 | 0.00 | 0.00 | 0.00 | 55 | 1017.0 |
| 20260905133049 | 88 | 68 | 6.1 | 13.0 | 0.00 | 0.00 | 0.00 | 46 | 1017.0 |
| 20260905131545 | 95 | 289 | 3.5 | 7.8 | 0.00 | 0.00 | 0.00 | 29 | 1017.0 |
| 20260905130045 | 94 | 25 | 4.3 | 11.3 | 0.00 | 0.00 | 0.00 | 31 | 1017.1 |
| 20260905124543 | 94 | 296 | 5.2 | 9.6 | 0.00 | 0.00 | 0.00 | 30 | 1017.5 |
| 20260905123042 | 94 | 297 | 3.5 | 8.7 | 0.00 | 0.00 | 0.00 | 29 | 1017.6 |
| 20260905121538 | 94 | 332 | 2.6 | 7.8 | 0.00 | 0.00 | 0.00 | 30 | 1017.7 |
| 20260905120034 | 94 | 13 | 4.3 | 8.7 | 0.00 | 0.00 | 0.00 | 29 | 1017.7 |
| 20260905114532 | 93 | 247 | 2.6 | 8.7 | 0.00 | 0.00 | 0.00 | 30 | 1018.0 |
| 20260905113030 | 93 | 337 | 2.6 | 7.8 | 0.00 | 0.00 | 0.00 | 31 | 1018.1 |
| 20260905111556 | 92 | 317 | 2.6 | 7.0 | 0.00 | 0.00 | 0.00 | 31 | 1018.2 |
| 20260905110055 | 92 | 322 | 7.0 | 9.6 | 0.00 | 0.00 | 0.00 | 30 | 1018.1 |
| 20260905104550 | 92 | 311 | 4.3 | 8.7 | 0.00 | 0.00 | 0.00 | 32 | 1018.3 |
| 20260905103049 | 91 | 24 | 4.3 | 10.4 | 0.00 | 0.00 | 0.00 | 34 | 1018.3 |
| 20260905101547 | 91 | 300 | 3.5 | 8.7 | 0.00 | 0.00 | 0.00 | 33 | 1018.1 |
| 20260905100044 | 91 | 345 | 5.2 | 9.6 | 0.00 | 0.00 | 0.00 | 34 | 1018.3 |
| 20260905094540 | 90 | 272 | 3.5 | 10.4 | 0.00 | 0.00 | 0.00 | 34 | 1018.5 |
| 20260905093048 | 90 | 317 | 2.6 | 7.0 | 0.00 | 0.00 | 0.00 | 34 | 1018.5 |
| 20260905091536 | 89 | 275 | 1.7 | 7.8 | 0.00 | 0.00 | 0.00 | 37 | 1018.4 |
| 20260905090035 | 88 | 332 | 3.5 | 7.8 | 0.00 | 0.00 | 0.00 | 39 | 1018.3 |
| 20260905084526 | 89 | 336 | 4.3 | 7.8 | 0.00 | 0.00 | 0.00 | 39 | 1018.2 |
| 20260905083022 | 88 | 293 | 1.7 | 7.0 | 0.00 | 0.00 | 0.00 | 38 | 1018.1 |
| 20260905081521 | 88 | 277 | 2.6 | 6.1 | 0.00 | 0.00 | 0.00 | 39 | 1017.8 |